1507773600.97,34545,11.5,73876.0,-1.01,-1.75,-1.75,0,*53
1507773602.2,34546,11.5,73874.8,-1.01,-1.71,-1.75,0,*54
1507773603.42,34547,11.5,73874.0,-1.01,-1.75,-1.75,0,*51
1507773604.64,34548,11.5,73878.0,-1.01,-1.75,-1.75,0,*5E
1507773605.84,34549,11.5,73876.3,-1.03,-1.75,-1.79,0,*51
1507773607.07,34550,11.5,73874.8,-1.01,-1.71,-1.75,0,*53
1507773608.29,34551,11.5,73872.5,-1.01,-1.75,-1.75,0,*56
1507773609.51,34552,11.5,73876.5,-1.01,-1.75,-1.75,0,*55
1507773610.73,34553,11.5,73876.5,-1.01,-1.75,-1.75,0,*54
1507773611.95,34554,11.44,73868.3,-1.01,-1.75,-1.75,0,*53
1507773613.17,34555,11.5,73872.5,-1.01,-1.75,-1.75,0,*52
1507773614.4,34556,11.5,73874.8,-1.01,-1.75,-1.75,0,*51
1507773615.62,34557,11.5,73878.8,-1.01,-1.75,-1.75,0,*50
1507773616.84,34558,11.5,73874.8,-1.01,-1.75,-1.71,0,*5B
1507773618.07,34559,11.5,73872.5,-1.01,-1.75,-1.75,0,*5E
1507773619.29,34560,11.5,73874.5,-1.01,-1.75,-1.71,0,*50
1507773620.52,34561,11.5,73874.8,-1.01,-1.75,-1.71,0,*51
1507773621.74,34562,11.5,73872.0,-1.01,-1.75,-1.71,0,*52
1507773622.96,34563,11.44,73876.0,-1.01,-1.75,-1.75,0,*57
1507773624.19,34564,11.5,73876.8,-1.01,-1.75,-1.75,0,*50
1507773625.41,34565,11.5,73876.0,-1.01,-1.75,-1.75,0,*51
1507773626.64,34566,11.5,73878.3,-1.01,-1.71,-1.75,0,*56
1507773627.86,34567,11.5,73874.8,-1.01,-1.75,-1.75,0,*53
1507773629.08,34568,11.5,73876.3,-1.01,-1.75,-1.75,0,*5C
1507773630.31,34569,11.5,73874.3,-1.01,-1.75,-1.71,0,*59
1507773631.53,34570,11.5,73878.0,-1.01,-1.75,-1.75,0,*55
1507773632.75,34571,11.5,73874.8,-1.01,-1.75,-1.75,0,*54
1507773633.97,34572,11.5,73874.3,-1.01,-1.75,-1.71,0,*53
1507773635.2,34573,11.5,73878.5,-1.01,-1.71,-1.75,0,*52
1507773636.43,34574,11.5,73876.3,-1.01,-1.75,-1.75,0,*51
1507773637.64,34575,11.5,73874.8,-0.97,-1.67,-1.67,0,*6E
1507773638.83,34576,11.5,73872.8,-0.99,-1.75,-1.75,0,*63
1507773640.02,34577,11.5,73874.3,-0.99,-1.75,-1.75,0,*62
1507773641.21,34578,11.5,73876.3,-0.99,-1.75,-1.75,0,*6D
1507773642.4,34579,11.5,73872.3,-0.99,-1.75,-1.75,0,*6C
1507773643.59,34580,11.5,73878.3,-0.99,-1.75,-1.75,0,*6A
1507773644.79,34581,11.5,73872.5,-0.99,-1.75,-1.75,0,*6B
1507773645.98,34582,11.5,73876.0,-0.99,-1.75,-1.75,0,*68
1507773647.17,34583,11.5,73874.5,-0.99,-1.75,-1.75,0,*69
1507773648.36,34584,11.5,73874.5,-0.99,-1.75,-1.71,0,*6A
1507773649.58,34585,11.5,73874.3,-1.01,-1.75,-1.75,0,*5F
1507773650.77,34586,11.5,73878.0,-0.99,-1.75,-1.75,0,*6C
1507773651.97,34587,11.5,73872.3,-0.99,-1.71,-1.75,0,*69
1507773653.16,34588,11.5,73874.3,-0.99,-1.75,-1.71,0,*66
1507773654.35,34589,11.5,73878.8,-0.99,-1.75,-1.75,0,*63
1507773655.58,34590,11.5,73872.0,-0.97,-1.71,-1.67,0,*62
1507773656.77,34591,11.5,73878.3,-0.99,-1.75,-1.75,0,*6A
1507773657.99,34592,11.5,73878.0,-1.01,-1.75,-1.75,0,*59
1507773659.18,34593,11.5,73876.0,-0.99,-1.79,-1.75,0,*64
1507773660.37,34594,11.5,73878.3,-0.99,-1.75,-1.71,0,*6B
1507773661.56,34595,11.44,73876.8,-0.99,-1.75,-1.75,0,*6E
1507773662.79,34596,11.5,73878.3,-0.97,-1.71,-1.71,0,*63
1507773664.02,34597,11.5,73878.3,-1.01,-1.71,-1.71,0,*5C
1507773665.24,34598,11.5,73876.5,-1.01,-1.75,-1.75,0,*53
1507773666.47,34599,11.5,73878.0,-1.01,-1.71,-1.75,0,*56
1507773667.69,34600,11.5,73878.5,-1.01,-1.75,-1.75,0,*51
1507773668.88,34601,11.5,73876.5,-0.99,-1.75,-1.75,0,*60
1507773670.08,34602,11.5,73872.5,-0.99,-1.71,-1.75,0,*67
1507773671.27,34603,11.5,73876.8,-0.99,-1.75,-1.75,0,*62
1507773672.5,34604,11.5,73876.3,-0.97,-1.71,-1.71,0,*6B
1507773673.69,34605,11.5,73876.0,-0.99,-1.75,-1.75,0,*64
1507773674.88,34606,11.5,73874.8,-0.99,-1.75,-1.75,0,*67
1507773676.07,34607,11.5,73878.5,-0.99,-1.75,-1.75,0,*66
1507773677.26,34608,11.5,73878.0,-0.99,-1.75,-1.75,0,*69
1507773678.45,34609,11.5,73876.0,-0.99,-1.75,-1.75,0,*68
1507773679.64,34610,11.5,73878.3,-0.99,-1.75,-1.75,0,*60
1507773680.83,34611,11.5,73880.0,-0.99,-1.75,-1.71,0,*65
1507773682.02,34612,11.5,73876.3,-0.99,-1.75,-1.75,0,*62
1507773683.21,34613,11.5,73878.8,-0.99,-1.75,-1.75,0,*63
1507773684.41,34614,11.5,73880.8,-0.99,-1.71,-1.75,0,*60
1507773685.6,34615,11.5,73880.3,-0.99,-1.75,-1.71,0,*61
1507773686.81,34616,11.5,73880.0,-0.99,-1.71,-1.71,0,*66
1507773688.0,34617,11.5,73880.8,-0.99,-1.75,-1.75,0,*67
1507773689.19,34618,11.5,73884.3,-0.99,-1.71,-1.75,0,*6C
1507773690.38,34619,11.5,73886.5,-0.99,-1.75,-1.75,0,*69
1507773691.57,34620,11.5,73884.0,-0.99,-1.75,-1.75,0,*63
1507773692.77,34621,11.5,73884.0,-0.99,-1.71,-1.75,0,*66
1507773693.97,34622,11.5,73886.5,-0.99,-1.71,-1.75,0,*65
1507773695.19,34623,11.5,73884.5,-0.97,-1.71,-1.67,0,*69
1507773696.38,34624,11.5,73886.3,-0.99,-1.75,-1.75,0,*67
1507773697.57,34625,11.5,73884.0,-0.99,-1.75,-1.75,0,*66
1507773698.76,34626,11.5,73886.8,-0.99,-1.75,-1.75,0,*65
1507773699.96,34627,11.5,73880.0,-0.99,-1.71,-1.71,0,*64
1507773701.15,34628,11.5,73886.0,-0.99,-1.75,-1.75,0,*6B
1507773702.34,34629,11.5,73886.0,-0.99,-1.75,-1.75,0,*6A
1507773703.54,34630,11.5,73882.3,-0.99,-1.75,-1.71,0,*66
1507773704.76,34631,11.5,73882.0,-0.97,-1.71,-1.71,0,*6D
1507773705.96,34632,11.5,73884.0,-0.99,-1.71,-1.79,0,*68
1507773707.15,34633,11.5,73882.8,-0.99,-1.75,-1.75,0,*61
1507773708.34,34634,11.5,73884.8,-0.99,-1.75,-1.75,0,*66
1507773709.53,34635,11.5,73880.3,-0.99,-1.75,-1.75,0,*67
1507773710.72,34636,11.5,73880.8,-0.99,-1.75,-1.75,0,*64
1507773711.91,34637,11.5,73880.3,-0.99,-1.75,-1.75,0,*65
1507773713.11,34638,11.5,73880.0,-0.99,-1.75,-1.71,0,*6E
1507773714.3,34639,11.5,73882.5,-0.99,-1.79,-1.75,0,*67
1507773715.49,34640,11.5,73878.0,-0.99,-1.79,-1.75,0,*69
1507773716.68,34641,11.5,73880.0,-0.99,-1.79,-1.75,0,*68
1507773717.87,34642,11.5,73882.8,-0.99,-1.79,-1.75,0,*6B
1507773719.06,34643,11.5,73880.3,-0.99,-1.79,-1.75,0,*6A
1507773720.25,34644,11.5,73882.0,-0.99,-1.79,-1.79,0,*61
1507773721.44,34645,11.5,73878.8,-0.99,-1.79,-1.75,0,*6C
1507773722.63,34646,11.5,73882.3,-0.99,-1.79,-1.75,0,*6F
1507773723.85,34647,11.5,73882.8,-0.97,-1.75,-1.71,0,*68
1507773725.04,34648,11.44,73874.8,-0.99,-1.79,-1.75,0,*61
1507773726.24,34649,11.5,73880.8,-0.99,-1.79,-1.71,0,*64
1507773727.45,34650,11.5,73878.3,-0.97,-1.75,-1.71,0,*6E
1507773728.64,34651,11.5,73874.5,-0.99,-1.79,-1.75,0,*69
1507773729.83,34652,11.5,73878.8,-0.99,-1.79,-1.75,0,*6A
1507773731.03,34653,11.5,73876.5,-0.99,-1.79,-1.75,0,*6B
1507773732.24,34654,11.5,73876.3,-0.97,-1.75,-1.71,0,*6A
1507773733.43,34655,11.5,73878.8,-0.99,-1.79,-1.75,0,*6D
1507773734.63,34656,11.5,73880.3,-0.99,-1.79,-1.75,0,*6E
1507773735.82,34657,11.5,73878.8,-0.99,-1.79,-1.75,0,*6F
1507773737.03,34658,11.5,73876.8,-0.97,-1.75,-1.71,0,*66
1507773738.22,34659,11.5,73876.5,-0.99,-1.79,-1.75,0,*61
1507773739.41,34660,11.5,73876.8,-0.99,-1.79,-1.75,0,*6B
1507773740.61,34661,11.5,73876.5,-0.99,-1.75,-1.71,0,*62
1507773741.8,34662,11.5,73878.3,-0.99,-1.75,-1.75,0,*65
1507773742.99,34663,11.5,73878.5,-0.99,-1.79,-1.75,0,*68
1507773744.2,34664,11.5,73876.0,-0.97,-1.75,-1.75,0,*6D
1507773745.42,34665,11.5,73880.0,-0.97,-1.75,-1.75,0,*6C
1507773746.61,34666,11.5,73876.3,-0.99,-1.79,-1.79,0,*61
1507773747.82,34667,11.5,73876.8,-0.97,-1.75,-1.75,0,*6E
1507773749.01,34668,11.5,73878.3,-0.99,-1.79,-1.79,0,*6F
1507773750.2,34669,11.5,73874.8,-0.99,-1.79,-1.79,0,*6E
1507773751.42,34670,11.5,73878.0,-0.97,-1.75,-1.79,0,*64
1507773752.61,34671,11.5,73876.5,-0.99,-1.79,-1.75,0,*6B
1507773753.82,34672,11.5,73876.3,-0.97,-1.75,-1.75,0,*6A
1507773755.04,34673,11.5,73876.0,-0.97,-1.75,-1.75,0,*6B
1507773756.25,34674,11.5,73878.3,-0.97,-1.75,-1.75,0,*6C
1507773757.47,34675,11.5,73876.5,-0.99,-1.87,-1.79,0,*62
1507773758.66,34676,11.5,73876.8,-0.99,-1.79,-1.79,0,*60
1507773759.85,34677,11.5,73874.8,-0.99,-1.79,-1.79,0,*61
1507773761.07,34678,11.5,73878.8,-0.97,-1.75,-1.75,0,*60
1507773762.26,34679,11.5,73876.3,-0.99,-1.79,-1.79,0,*6F
1507773763.45,34680,11.5,73876.3,-0.99,-1.79,-1.75,0,*65
1507773764.67,34681,11.5,73882.0,-0.97,-1.75,-1.71,0,*62
1507773765.86,34682,11.5,73876.5,-0.99,-1.79,-1.79,0,*6B
1507773767.05,34683,11.5,73880.5,-0.99,-1.79,-1.79,0,*6A
1507773768.24,34684,11.5,73876.3,-0.99,-1.79,-1.79,0,*6D
1507773769.45,34685,11.5,73876.5,-0.97,-1.75,-1.75,0,*62
1507773770.64,34686,11.5,73880.5,-0.99,-1.79,-1.75,0,*63
1507773771.83,34687,11.5,73880.0,-0.99,-1.75,-1.75,0,*6E
1507773773.06,34688,11.5,73876.8,-0.97,-1.71,-1.71,0,*6F
1507773774.25,34689,11.5,73878.5,-0.99,-1.75,-1.75,0,*60
1507773775.49,34690,11.5,73876.5,-0.97,-1.83,-1.75,0,*6F
1507773776.71,34691,11.5,73876.8,-0.97,-1.75,-1.75,0,*67
1507773777.9,34692,11.5,73880.3,-0.99,-1.79,-1.75,0,*66
1507773779.09,34693,11.5,73882.3,-0.99,-1.79,-1.75,0,*67
1507773780.28,34694,11.5,73878.0,-0.99,-1.79,-1.75,0,*60
1507773781.47,34695,11.5,73880.0,-0.99,-1.79,-1.79,0,*6D
1507773782.69,34696,11.5,73874.8,-0.97,-1.71,-1.75,0,*64
1507773783.91,34697,11.5,73878.0,-0.97,-1.71,-1.75,0,*65
1507773785.1,34698,11.5,73880.8,-0.99,-1.75,-1.75,0,*60
1507773786.29,34699,11.5,73880.8,-0.99,-1.79,-1.79,0,*61
1507773787.48,34700,11.5,73876.5,-0.99,-1.79,-1.75,0,*6C
1507773788.67,34701,11.5,73878.0,-0.99,-1.79,-1.79,0,*61
1507773789.86,34702,11.5,73882.3,-0.99,-1.79,-1.79,0,*62
1507773791.05,34703,11.5,73876.0,-0.99,-1.79,-1.75,0,*6F
1507773792.25,34704,11.5,73882.0,-0.99,-1.79,-1.79,0,*64
1507773793.44,34705,11.5,73880.5,-0.99,-1.79,-1.79,0,*65
1507773794.63,34706,11.5,73878.8,-0.99,-1.79,-1.79,0,*66
1507773795.82,34707,11.5,73878.3,-0.99,-1.79,-1.79,0,*67
1507773797.01,34708,11.5,73878.8,-0.99,-1.79,-1.79,0,*68
1507773798.2,34709,11.5,73884.0,-0.99,-1.75,-1.79,0,*65
1507773799.39,34710,11.5,73880.0,-0.99,-1.75,-1.75,0,*61
1507773800.61,34711,11.5,73878.0,-0.97,-1.75,-1.71,0,*6A
1507773801.83,34712,11.5,73876.8,-0.97,-1.75,-1.71,0,*69
1507773803.02,34713,11.5,73878.5,-0.99,-1.75,-1.75,0,*62
1507773804.21,34714,11.5,73880.3,-0.99,-1.79,-1.75,0,*69
1507773805.4,34715,11.5,73878.5,-0.99,-1.79,-1.75,0,*68
1507773806.59,34716,11.5,73878.0,-0.99,-1.79,-1.79,0,*67
1507773807.78,34717,11.5,73876.5,-0.99,-1.79,-1.75,0,*6A
1507773808.97,34718,11.5,73878.8,-0.99,-1.79,-1.75,0,*65
1507773810.19,34719,11.5,73880.0,-0.97,-1.75,-1.71,0,*62
1507773811.38,34720,11.5,73882.5,-0.99,-1.79,-1.71,0,*6A
1507773812.57,34721,11.5,73882.5,-0.99,-1.75,-1.75,0,*63
1507773813.77,34722,11.5,73880.5,-0.99,-1.71,-1.75,0,*64
1507773814.97,34723,11.5,73882.3,-0.99,-1.71,-1.71,0,*61
1507773816.16,34724,11.5,73878.3,-0.99,-1.75,-1.75,0,*66
1507773817.39,34725,11.5,73876.0,-0.97,-1.71,-1.71,0,*69
1507773818.61,34726,11.5,73878.0,-0.97,-1.71,-1.71,0,*6A
1507773819.84,34727,11.5,73878.5,-0.97,-1.71,-1.71,0,*6B
1507773821.03,34728,11.5,73878.5,-0.99,-1.75,-1.75,0,*6A
1507773822.22,34729,11.5,73876.8,-0.99,-1.75,-1.75,0,*6B
1507773823.44,34730,11.5,73874.3,-0.97,-1.71,-1.71,0,*6D
1507773824.63,34731,11.5,73874.5,-0.99,-1.75,-1.75,0,*62
1507773825.82,34732,11.5,73878.8,-0.99,-1.75,-1.75,0,*61
1507773827.04,34733,11.5,73880.8,-0.97,-1.75,-1.67,0,*6D
1507773828.26,34734,11.5,73876.0,-0.97,-1.75,-1.67,0,*6A
1507773829.45,34735,11.5,73876.3,-0.99,-1.79,-1.75,0,*6A
1507773830.67,34736,11.5,73876.5,-0.97,-1.71,-1.71,0,*6B
1507773831.9,34737,11.5,73876.8,-0.97,-1.71,-1.71,0,*6A
1507773833.09,34738,11.5,73874.3,-0.99,-1.75,-1.75,0,*6B
1507773834.28,34739,11.5,73872.3,-0.99,-1.75,-1.75,0,*6A
1507773835.47,34740,11.5,73872.3,-0.99,-1.79,-1.75,0,*68
1507773836.66,34741,11.5,73874.3,-0.99,-1.79,-1.75,0,*69
1507773837.88,34742,11.5,73870.8,-0.97,-1.75,-1.71,0,*6C
1507773839.09,34743,11.5,73872.0,-0.97,-1.75,-1.75,0,*69
1507773840.28,34744,11.5,73868.5,-0.99,-1.79,-1.75,0,*6C
1507773841.5,34745,11.5,73874.0,-0.97,-1.75,-1.71,0,*6B
1507773842.72,34746,11.5,73872.3,-0.97,-1.71,-1.71,0,*6C
1507773843.91,34747,11.5,73868.0,-0.99,-1.75,-1.75,0,*63
1507773845.1,34748,11.5,73866.5,-0.99,-1.75,-1.75,0,*6C
1507773846.33,34749,11.5,73864.0,-0.97,-1.71,-1.71,0,*63
1507773847.55,34750,11.5,73866.0,-0.97,-1.71,-1.71,0,*6B
1507773848.78,34751,11.5,73866.3,-0.97,-1.71,-1.71,0,*6A
1507773850.0,34752,11.5,73866.8,-0.97,-1.71,-1.71,0,*69
1507773851.19,34753,11.5,73864.5,-0.99,-1.75,-1.71,0,*62
1507773852.42,34754,11.5,73872.5,-0.97,-1.71,-1.71,0,*6F
1507773853.64,34755,11.5,73868.8,-0.97,-1.71,-1.71,0,*6E
1507773854.87,34756,11.5,73864.3,-0.97,-1.71,-1.71,0,*6D
1507773856.09,34757,11.5,73864.5,-0.97,-1.71,-1.67,0,*6B
1507773857.31,34758,11.5,73866.3,-0.97,-1.71,-1.71,0,*63
1507773858.51,34759,11.5,73864.0,-0.99,-1.75,-1.75,0,*6C
1507773859.73,34760,11.5,73866.5,-0.97,-1.71,-1.71,0,*68
1507773860.95,34761,11.5,73870.5,-0.97,-1.71,-1.71,0,*69
1507773862.18,34762,11.5,73864.5,-0.97,-1.71,-1.71,0,*6A
1507773863.4,34763,11.5,73868.3,-0.97,-1.71,-1.71,0,*6B
1507773864.63,34764,11.5,73874.8,-0.97,-1.71,-1.71,0,*6C
1507773865.85,34765,11.5,73874.8,-0.97,-1.71,-1.71,0,*6D
1507773867.07,34766,11.5,73872.5,-0.97,-1.71,-1.67,0,*69
1507773868.26,34767,11.5,73870.5,-0.99,-1.75,-1.75,0,*61
1507773869.45,34768,11.5,73872.0,-0.99,-1.75,-1.75,0,*6E
1507773870.68,34769,11.5,73876.5,-0.97,-1.71,-1.71,0,*61
1507773871.9,34770,11.5,73870.5,-0.97,-1.71,-1.71,0,*69
1507773873.13,34771,11.5,73870.3,-0.97,-1.71,-1.71,0,*68
1507773874.32,34772,11.5,73868.8,-0.99,-1.75,-1.75,0,*65
1507773875.54,34773,11.5,73868.3,-0.97,-1.71,-1.71,0,*6A
1507773876.77,34774,11.5,73868.0,-0.97,-1.71,-1.71,0,*6D
1507773877.96,34775,11.5,73876.5,-0.99,-1.79,-1.79,0,*62
1507773879.17,34776,11.5,73880.0,-0.97,-1.75,-1.75,0,*6F
1507773880.38,34777,11.5,73876.3,-0.97,-1.75,-1.75,0,*6E
1507773881.6,34778,11.5,73868.8,-0.97,-1.75,-1.67,0,*62
1507773882.82,34779,11.5,73870.3,-0.97,-1.75,-1.75,0,*60
1507773884.03,34780,11.5,73872.5,-0.97,-1.75,-1.75,0,*66
1507773885.24,34781,11.5,73870.8,-0.97,-1.75,-1.79,0,*6B
1507773886.43,34782,11.5,73870.3,-0.99,-1.75,-1.75,0,*6A
1507773887.63,34783,11.5,73868.3,-0.99,-1.75,-1.71,0,*6F
1507773888.82,34784,11.5,73870.0,-0.99,-1.75,-1.75,0,*6C
1507773890.04,34785,11.5,73870.5,-0.97,-1.71,-1.71,0,*63
1507773891.27,34786,11.5,73872.0,-0.97,-1.71,-1.71,0,*60
1507773892.46,34787,11.5,73866.5,-0.99,-1.79,-1.75,0,*63
1507773893.68,34788,11.5,73868.3,-0.97,-1.71,-1.67,0,*69
1507773894.9,34789,11.5,73868.0,-0.97,-1.67,-1.71,0,*68
1507773896.12,34790,11.5,73866.5,-0.97,-1.75,-1.71,0,*63
1507773897.34,34791,11.5,73866.5,-0.97,-1.71,-1.71,0,*66
1507773898.57,34792,11.5,73868.8,-0.97,-1.71,-1.71,0,*65
1507773899.79,34793,11.5,73870.3,-0.97,-1.71,-1.75,0,*60
1507773901.01,34794,11.5,73868.3,-0.97,-1.71,-1.75,0,*67
1507773902.2,34795,11.5,73868.8,-0.99,-1.75,-1.79,0,*60
1507773903.41,34796,11.5,73866.8,-0.97,-1.75,-1.75,0,*61
1507773904.62,34797,11.5,73866.0,-0.97,-1.75,-1.75,0,*60
1507773905.81,34798,11.5,73864.5,-0.99,-1.79,-1.79,0,*61
1507773907.03,34799,11.5,73864.3,-0.97,-1.75,-1.75,0,*6E
1507773908.24,34800,11.5,73866.0,-0.97,-1.75,-1.75,0,*61
1507773909.46,34801,11.5,73860.5,-0.97,-1.75,-1.75,0,*60
1507773910.67,34802,11.5,73862.5,-0.97,-1.75,-1.75,0,*63
1507773911.88,34803,11.5,73862.8,-0.97,-1.75,-1.75,0,*62
1507773913.07,34804,11.5,73862.0,-0.99,-1.79,-1.75,0,*67
1507773914.29,34805,11.5,73862.3,-0.97,-1.75,-1.71,0,*60
1507773915.51,34806,11.5,73866.8,-0.97,-1.75,-1.71,0,*63
1507773916.73,34807,11.5,73866.5,-0.97,-1.75,-1.71,0,*62
1507773917.94,34808,11.5,73868.5,-0.97,-1.75,-1.71,0,*6D
1507773919.16,34809,11.5,73868.8,-0.97,-1.75,-1.75,0,*68
1507773920.35,34810,11.5,73870.0,-0.99,-1.79,-1.75,0,*62
1507773921.57,34811,11.5,73872.0,-0.97,-1.75,-1.71,0,*65
1507773922.78,34812,11.5,73868.8,-0.97,-1.75,-1.71,0,*66
1507773924.0,34813,11.5,73870.8,-0.97,-1.75,-1.71,0,*67
1507773925.19,34814,11.5,73872.0,-0.99,-1.79,-1.75,0,*66
1507773926.41,34815,11.5,73868.0,-0.97,-1.75,-1.71,0,*61
1507773927.63,34816,11.5,73862.3,-0.97,-1.75,-1.71,0,*62
1507773928.85,34817,11.5,73856.5,-0.97,-1.75,-1.71,0,*63
1507773930.06,34818,11.5,73864.5,-0.97,-1.75,-1.71,0,*6C
1507773931.28,34819,11.5,73866.3,-0.97,-1.75,-1.71,0,*6D
1507773932.52,34820,11.5,73862.3,-0.97,-1.83,-1.75,0,*6A
1507773933.74,34821,11.5,73862.5,-0.97,-1.75,-1.75,0,*62
1507773934.98,34822,11.5,73858.0,-0.97,-1.83,-1.75,0,*68
1507773936.22,34823,11.5,73870.5,-0.97,-1.83,-1.75,0,*69
1507773937.44,34824,11.5,73874.3,-0.97,-1.75,-1.75,0,*67
1507773938.68,34825,11.5,73866.8,-0.97,-1.83,-1.75,0,*6F
1507773939.87,34826,11.5,73858.0,-0.99,-1.79,-1.79,0,*6B
1507773941.08,34827,11.5,73862.8,-0.97,-1.75,-1.75,0,*64
1507773942.3,34828,11.5,73866.8,-0.97,-1.75,-1.75,0,*6B
1507773943.51,34829,11.5,73864.0,-0.97,-1.75,-1.75,0,*6A
1507773944.72,34830,11.5,73866.0,-0.97,-1.75,-1.75,0,*62
1507773945.94,34831,11.5,73864.0,-0.97,-1.75,-1.75,0,*63
1507773947.16,34832,11.5,73870.8,-0.99,-1.87,-1.79,0,*6F
1507773948.4,34833,11.5,73866.3,-0.97,-1.83,-1.75,0,*68
1507773949.62,34834,11.5,73870.8,-0.99,-1.87,-1.79,0,*69
1507773950.83,34835,11.5,73866.5,-0.97,-1.75,-1.75,0,*67
1507773952.04,34836,11.5,73864.0,-0.97,-1.75,-1.75,0,*64
1507773953.26,34837,11.5,73866.0,-0.97,-1.75,-1.79,0,*69
1507773954.47,34838,11.5,73866.3,-0.97,-1.75,-1.75,0,*6A
1507773955.66,34839,11.5,73866.8,-0.99,-1.79,-1.79,0,*65
1507773956.86,34840,11.5,73862.8,-0.95,-1.71,-1.71,0,*67
1507773958.06,34841,11.5,73864.8,-0.99,-1.79,-1.79,0,*6A
1507773959.27,34842,11.5,73866.0,-0.97,-1.75,-1.75,0,*67
1507773960.51,34843,11.5,73860.8,-0.97,-1.83,-1.75,0,*6F
1507773961.75,34844,11.5,73864.8,-0.97,-1.83,-1.75,0,*68
1507773962.97,34845,11.5,73866.8,-0.97,-1.75,-1.75,0,*60
1507773964.21,34846,11.5,73870.5,-0.97,-1.83,-1.75,0,*6A
1507773965.45,34847,11.5,73868.3,-0.97,-1.83,-1.75,0,*6B
1507773966.67,34848,11.5,73872.5,-0.97,-1.75,-1.75,0,*6D
1507773967.86,34849,11.5,73874.5,-0.99,-1.79,-1.79,0,*62
1507773969.07,34850,11.5,73870.0,-0.97,-1.75,-1.75,0,*64
1507773970.28,34851,11.5,73864.5,-0.97,-1.75,-1.75,0,*65
1507773971.53,34852,11.5,73862.5,-0.97,-1.83,-1.75,0,*6F
1507773972.74,34853,11.5,73870.8,-0.97,-1.75,-1.75,0,*67
1507773973.96,34854,11.5,73860.3,-0.99,-1.75,-1.83,0,*67
1507773975.17,34855,11.5,73860.0,-0.97,-1.75,-1.75,0,*61
1507773976.38,34856,11.5,73862.8,-0.97,-1.75,-1.75,0,*62
1507773977.57,34857,11.5,73864.8,-0.99,-1.79,-1.79,0,*6D
1507773978.76,34858,11.5,73868.8,-0.99,-1.79,-1.79,0,*62
1507773979.98,34859,11.5,73868.8,-0.97,-1.75,-1.75,0,*6D
1507773981.24,34860,11.5,73868.0,-0.97,-1.95,-1.91,0,*63
1507773982.51,34861,11.5,73872.0,-0.97,-1.87,-1.83,0,*62
1507773983.75,34862,11.5,73872.0,-0.97,-1.83,-1.75,0,*6C
1507773984.99,34863,11.5,73876.0,-0.97,-1.75,-1.83,0,*6D
1507773986.23,34864,11.5,73876.5,-0.97,-1.83,-1.75,0,*6A
1507773987.45,34865,11.5,73874.0,-0.97,-1.75,-1.75,0,*62
1507773988.66,34866,11.5,73870.8,-0.97,-1.75,-1.75,0,*61
1507773989.85,34867,11.5,73868.3,-0.99,-1.79,-1.79,0,*6E
1507773991.09,34868,11.5,73868.0,-0.97,-1.83,-1.75,0,*66
1507773992.34,34869,11.5,73870.3,-0.99,-1.87,-1.87,0,*60
1507773993.58,34870,11.5,73870.8,-0.99,-1.87,-1.87,0,*68
1507773994.82,34871,11.5,73868.8,-0.97,-1.83,-1.75,0,*6E
1507773996.06,34872,11.5,73874.0,-0.97,-1.75,-1.83,0,*6D
1507773997.3,34873,11.5,73870.0,-0.97,-1.83,-1.75,0,*6C
1507773998.49,34874,11.5,73870.0,-0.99,-1.79,-1.79,0,*6C
1507773999.71,34875,11.5,73876.5,-0.99,-1.79,-1.87,0,*6C
1507774000.92,34876,11.5,73874.0,-0.97,-1.75,-1.75,0,*60
1507774002.14,34877,11.5,73872.5,-0.97,-1.75,-1.75,0,*61
1507774003.35,34878,11.5,73872.8,-0.97,-1.75,-1.75,0,*6E
1507774004.57,34879,11.5,73874.3,-0.97,-1.75,-1.75,0,*6F
1507774005.78,34880,11.5,73876.3,-0.99,-1.87,-1.79,0,*66
1507774007.0,34881,11.5,73874.5,-0.97,-1.75,-1.75,0,*68
1507774008.19,34882,11.5,73872.5,-0.99,-1.79,-1.79,0,*65
1507774009.46,34883,11.5,73872.5,-0.97,-1.83,-1.83,0,*6A
1507774010.67,34884,11.5,73872.3,-0.97,-1.75,-1.75,0,*6D
1507774011.88,34885,11.5,73874.0,-0.97,-1.75,-1.75,0,*6C
1507774013.1,34886,11.5,73872.5,-0.99,-1.87,-1.79,0,*60
1507774014.34,34887,11.5,73876.0,-0.97,-1.83,-1.75,0,*67
1507774015.59,34888,11.5,73878.5,-0.97,-1.83,-1.75,0,*68
1507774016.8,34889,11.5,73878.3,-0.97,-1.75,-1.75,0,*60
1507774018.01,34890,11.5,73872.3,-0.97,-1.75,-1.75,0,*68
1507774019.26,34891,11.5,73870.3,-0.97,-1.83,-1.75,0,*60
1507774020.47,34892,11.5,73872.5,-0.97,-1.75,-1.75,0,*6A
1507774021.68,34893,11.5,73868.5,-0.97,-1.75,-1.75,0,*6B
1507774022.9,34894,11.5,73870.3,-0.97,-1.75,-1.75,0,*6C
1507774024.14,34895,11.5,73870.8,-0.97,-1.83,-1.75,0,*64
1507774025.35,34896,11.5,73870.8,-0.97,-1.75,-1.75,0,*6E
1507774026.57,34897,11.5,73872.0,-0.97,-1.75,-1.75,0,*6F
1507774027.78,34898,11.5,73874.3,-0.97,-1.75,-1.75,0,*60
1507774029.02,34899,11.5,73872.8,-0.97,-1.83,-1.75,0,*68
1507774030.27,34900,11.5,73872.5,-0.97,-1.83,-1.75,0,*69
1507774031.51,34901,11.5,73874.0,-0.97,-1.83,-1.75,0,*68
1507774032.75,34902,11.5,73880.0,-0.97,-1.83,-1.75,0,*6B
1507774033.94,34903,11.5,73880.0,-0.99,-1.79,-1.79,0,*6D
1507774035.18,34904,11.5,73880.0,-0.97,-1.83,-1.75,0,*6D
1507774036.4,34905,11.5,73880.3,-0.97,-1.75,-1.75,0,*65
1507774037.59,34906,11.5,73880.5,-0.99,-1.79,-1.79,0,*68
1507774038.8,34907,11.5,73878.5,-0.97,-1.75,-1.75,0,*67
1507774040.05,34908,11.5,73874.5,-0.99,-1.87,-1.87,0,*66
1507774041.26,34909,11.5,73880.0,-0.97,-1.75,-1.75,0,*69
1507774042.47,34910,11.5,73878.8,-0.97,-1.75,-1.75,0,*61
1507774043.71,34911,11.5,73878.5,-0.97,-1.83,-1.75,0,*69
1507774044.96,34912,11.5,73868.5,-0.97,-1.83,-1.75,0,*6A
1507774046.17,34913,11.5,73870.5,-0.97,-1.75,-1.75,0,*62
1507774047.36,34914,11.5,73866.0,-0.99,-1.79,-1.79,0,*6B
1507774048.58,34915,11.5,73868.3,-0.97,-1.75,-1.75,0,*64
1507774049.82,34916,11.5,73870.8,-0.97,-1.83,-1.75,0,*6E
1507774051.03,34917,11.5,73870.0,-0.99,-1.79,-1.87,0,*69
1507774052.25,34918,11.5,73868.0,-0.97,-1.75,-1.75,0,*69
1507774053.46,34919,11.5,73870.3,-0.97,-1.75,-1.75,0,*68
1507774054.7,34920,11.5,73870.3,-0.97,-1.83,-1.75,0,*6B
1507774055.95,34921,11.5,73868.5,-0.97,-1.83,-1.75,0,*6A
1507774057.16,34922,11.5,73872.5,-0.97,-1.75,-1.75,0,*60
1507774058.4,34923,11.5,73876.8,-0.97,-1.83,-1.75,0,*68
1507774059.61,34924,11.5,73878.5,-0.97,-1.75,-1.75,0,*66
1507774060.83,34925,11.5,73882.5,-0.97,-1.75,-1.75,0,*67
1507774062.04,34926,11.5,73882.3,-0.97,-1.75,-1.75,0,*64
1507774063.28,34927,11.5,73884.3,-0.97,-1.75,-1.83,0,*6C
1507774064.55,34928,11.5,73884.0,-0.97,-1.83,-1.83,0,*6A
1507774065.76,34929,11.5,73880.5,-0.97,-1.75,-1.75,0,*6B
1507774067.0,34930,11.5,73876.5,-0.97,-1.83,-1.75,0,*6A
1507774068.27,34931,11.5,73866.5,-0.97,-1.83,-1.83,0,*62
1507774069.51,34932,11.5,73864.0,-0.97,-1.83,-1.75,0,*68
1507774070.75,34933,11.5,73860.3,-0.97,-1.83,-1.75,0,*69
1507774071.97,34934,11.5,73862.3,-0.97,-1.75,-1.75,0,*67
1507774073.21,34935,11.5,73862.8,-0.97,-1.83,-1.75,0,*6F
1507774074.42,34936,11.5,73854.0,-0.97,-1.75,-1.75,0,*65
1507774075.64,34937,11.5,73862.3,-0.97,-1.75,-1.75,0,*64
1507774076.83,34938,11.5,73866.3,-0.95,-1.79,-1.79,0,*69
1507774078.07,34939,11.5,73870.5,-0.97,-1.83,-1.75,0,*63
1507774079.29,34940,11.5,73866.0,-0.99,-1.79,-1.87,0,*6B
1507774080.56,34941,11.5,73874.3,-0.97,-1.83,-1.83,0,*65
1507774081.8,34942,11.5,73874.8,-0.99,-1.87,-1.87,0,*68
1507774083.07,34943,11.5,73872.5,-0.97,-1.83,-1.83,0,*67
1507774084.28,34944,11.5,73872.0,-0.97,-1.75,-1.75,0,*60
1507774085.55,34945,11.5,73874.0,-0.97,-1.83,-1.83,0,*61
1507774086.79,34946,11.5,73868.3,-0.97,-1.83,-1.75,0,*6B
1507774088.03,34947,11.5,73858.0,-0.97,-1.87,-1.75,0,*6E
1507774089.27,34948,11.5,73856.8,-0.97,-1.83,-1.75,0,*65
1507774090.49,34949,11.5,73862.0,-0.99,-1.79,-1.87,0,*62
1507774091.73,34950,11.5,73874.0,-0.97,-1.83,-1.75,0,*6C
1507774092.94,34951,11.5,73880.0,-0.97,-1.75,-1.75,0,*64
1507774094.18,34952,11.5,73868.3,-0.97,-1.75,-1.83,0,*6E
1507774095.43,34953,11.5,73878.5,-0.97,-1.87,-1.75,0,*6B
1507774096.69,34954,11.5,73878.8,-0.97,-1.83,-1.83,0,*61
1507774097.94,34955,11.5,73868.5,-0.97,-1.83,-1.75,0,*69
1507774099.2,34956,11.5,73874.3,-0.97,-1.83,-1.83,0,*63
1507774100.42,34957,11.5,73874.5,-0.99,-1.87,-1.79,0,*6D
1507774101.66,34958,11.5,73872.5,-0.97,-1.83,-1.75,0,*64
1507774102.93,34959,11.5,73874.0,-0.97,-1.83,-1.83,0,*6C
1507774104.2,34960,11.44,73868.5,-0.97,-1.83,-1.83,0,*66
1507774105.47,34961,11.5,73872.5,-0.97,-1.83,-1.83,0,*67
1507774106.71,34962,11.5,73870.5,-0.97,-1.83,-1.75,0,*6D
1507774107.95,34963,11.5,73868.3,-0.97,-1.87,-1.75,0,*68
1507774109.19,34964,11.5,73864.3,-0.97,-1.83,-1.75,0,*6B
1507774110.44,34965,11.5,73864.5,-0.97,-1.83,-1.75,0,*6A